Regional Weather Roundup
Issued by NWS

Home | Current Version | Previous Version | Text Only | Print | Product List | Glossary Off
Versions: 1 2 3 4 5 6 7 8 9 10 11 12 13 14 15 16 17 18 19 20 21 22 23 24 25 26 27 28 29 30 31 32 33 34 35 36 37 38 39 40 41 42 43 44 45 46 47 48 49 50

000
ASUS43 KLOT 231209
RWRIL

ILLINOIS REGIONAL WEATHER ROUNDUP
NATIONAL WEATHER SERVICE CHICAGO/ROMEOVILLE IL
700 AM CDT FRI JUN 23 2017

NOTE: "FAIR" INDICATES FEW OR NO CLOUDS BELOW 12,000 FEET WITH NO
SIGNIFICANT WEATHER AND/OR OBSTRUCTIONS TO VISIBILITY.

* THESE STATIONS ARE NOT UNDER NWS QUALITY CONTROL. THEY ALSO MAY NOT
  REPORT WEATHER SUCH AS PRECIPITATION OR FOG.

ILZ001-002-007-009-015-016-024-231300-
NORTHWEST ILLINOIS

CITY           SKY/WX    TMP DP  RH WIND       PRES   REMARKS
MOLINE         CLOUDY    69  64  84 N6        29.72R
6HR MIN TEMP:  69; 6HR MAX TEMP:  77; 6HR PCP:  0.57;

STERLING*      CLOUDY    67  65  93 N6        29.72R
SAVANNA*       CLOUDY    66  63  90 N6        29.73R
$$

ILZ003-004-008-010-011-017-018-231300-
NORTH CENTRAL ILLINOIS

CITY           SKY/WX    TMP DP  RH WIND       PRES   REMARKS
ROCKFORD       PTSUNNY   67  64  90 N7        29.71R
6HR MIN TEMP:  67; 6HR MAX TEMP:  77; 6HR PCP:  0.45;

FREEPORT*      CLOUDY    65  64  96 N6        29.74R
ROCHELLE*      PTSUNNY   66  64  91 N8        29.71R
DE KALB*       CLOUDY    66  65  94 N7        29.71R
PERU*          CLOUDY    67  65  93 N13       29.70S
$$

ILZ005-006-012>014-019>023-231300-
NORTHEAST ILLINOIS

CITY           SKY/WX    TMP DP  RH WIND       PRES   REMARKS
CHICAGO-OHARE  CLOUDY    68  65  90 NW5       29.67R
6HR MIN TEMP:  68; 6HR MAX TEMP:  77; 6HR PCP:  0.71;

CHICAGO-MIDWAY LGT RAIN  69  66  90 W5        29.68R
6HR MIN TEMP:  68; 6HR MAX TEMP:  77;

AURORA         LGT RAIN  68  67  96 NW6       29.70R
6HR MIN TEMP:  68; 6HR MAX TEMP:  76; 6HR PCP:  0.37;

LANSING*       RAIN      67  65  93 CALM      29.67F
JOLIET*        LGT RAIN  69  69  98 CALM      29.69S
WAUKEGAN       CLOUDY    65  64  97 VRB3      29.66S
6HR MIN TEMP:  65; 6HR MAX TEMP:  75; 6HR PCP:  0.81;

DUPAGE AIRPORT CLOUDY    67  67 100 CALM      29.68R
6HR MIN TEMP:  66; 6HR MAX TEMP:  75; 6HR PCP:  0.48;

WHEELING       LGT RAIN  67  67 100 VRB6      29.68R
6HR MIN TEMP:  66; 6HR MAX TEMP:  76; 6HR PCP:  1.06;

MORRIS*        PTSUNNY   68  66  94 CALM      29.67S
ROMEOVILLE*    LGT RAIN  67  65  91 NW6       29.69R
NORTHERLY ISL    N/A     63  61  93 CALM        N/A
$$

LMZ740>746-231300-
SOUTHERN LAKE MICHIGAN

STATION/POSITION SKY/WX   TEMP    WIND        PRES    VSBY  WAVE
                          AIR SEA DIR/SP/G                  HT/PER
                          (F)     (DEG/KT/KT) (MB)    (MI)  (FT/S)
SOUTHERN BUOY              62 61  360/ 10/ 12 1003.7          2/ 4
WILMETTE HARBOR            64 63  350/  8/ 10   N/A           1/ 3
HARRISON CRIB              66      20/  8/  8   N/A
BURNHAM HARBOR             64                   N/A
CALUMET HARBOR             65      60/  4/  4 1004.2F
BURNS HARBOR               66     340/  3/ 10 1005.8R
MICHIGAN CITY              65     280/  3/  4   N/A
MICHIGAN CITY 6N           65 67  170/  2/  6   N/A           1/ 2
ST. JOSEPH                 67 68  310/  6/ 12 1004.9          2/ 3
$$

ILZ025>027-034>036-040-047-049-050-058-095>099-231300-
WEST-CENTRAL ILLINOIS

CITY           SKY/WX    TMP DP  RH WIND       PRES   REMARKS
QUINCY         LGT RAIN  70  69  97 NW13      29.73R
GALESBURG*     LGT RAIN  69  67  92 N14       29.72R
MACOMB*        LGT RAIN  71  71  98 N7        29.73R
JACKSONVILLE*  PTSUNNY   75  72  90 W6        29.70R
PITTSFIELD*    CLOUDY    74  72  92 W12       29.73R
$$

ILZ028>032-037-038-041>044-048-051>054-059>061-231300-
CENTRAL ILLINOIS

CITY           SKY/WX    TMP DP  RH WIND       PRES   REMARKS
PONTIAC        CLOUDY    68  68  99 NW7       29.71R
BLOOMINGTON    LGT RAIN  75  73  93 W9        29.70R
DECATUR        CLOUDY    75  73  93 SW8       29.69S
PEORIA         LGT RAIN  70  67  90 CALM      29.67S
6HR MIN TEMP:  70; 6HR MAX TEMP:  76; 6HR PCP:  0.27;

LACON*         RAIN      68  67  96 N7        29.69R
LINCOLN*       CLOUDY    73  73  97 SW3       29.68S
SPRINGFIELD    CLOUDY    77  75  93 SW7       29.68S
6HR MIN TEMP:  77; 6HR MAX TEMP:  77; 6HR PCP:  0.09;

TAYLORVILLE    CLOUDY    74  74  98 SW5       29.70R
6HR MIN TEMP:  73; 6HR MAX TEMP:  74;

$$

ILZ033-039-045-046-055>057-062-063-231300-
EAST-CENTRAL ILLINOIS

CITY           SKY/WX    TMP DP  RH WIND       PRES   REMARKS
CHAMPAIGN      CLOUDY    76  73  91 SW12      29.69S
RANTOUL*       CLOUDY    77  76  96 SW7       29.69R
MATTOON        PTSUNNY   76  75  97 S9        29.70S
PARIS*         CLOUDY    76  74  96 SW9       29.71F
$$

ILZ079-100>102-231300-
SOUTHWEST ILLINOIS

CITY           SKY/WX    TMP DP  RH WIND       PRES   REMARKS
ALTON          PTSUNNY   75  73  94 SW6       29.71R
BELLEVILLE     MOSUNNY   75  74  94 S5        29.72R
CAHOKIA*       CLOUDY    77  73  87 SE5       29.70R
SPARTA*        CLOUDY    74  73  95 CALM      29.73R
$$

ILZ064>066-069>071-074>076-080>082-084>086-088>090-092>094-231300-
SOUTH-CENTRAL ILLINOIS

CITY           SKY/WX    TMP DP  RH WIND       PRES   REMARKS
CARBONDALE     LGT RAIN  75  75 100 S6        29.72R
6HR MIN TEMP:  75; 6HR MAX TEMP:  77; 6HR PCP:  0.38;

CAIRO*         CLOUDY    75  73  94 S8        29.71S
EFFINGHAM*     CLOUDY    76  75  98 S5        29.73S
MARION         CLOUDY    75  75 100 S5        29.73R
MT. VERNON     LGT RAIN  75  74  96 SW3       29.73R
CENTRALIA*     CLOUDY    76  75  98 S3        29.72R
SALEM*         CLOUDY    77  74  92 S3        29.72R
METROPOLIS*    CLOUDY    76  73  92 S9        29.73S
$$

ILZ067-068-072-073-078-083-087-091-231300-
SOUTHEAST ILLINOIS

CITY           SKY/WX    TMP DP  RH WIND       PRES   REMARKS
LAWRENCEVILLE  LGT RAIN  76  74  93 S8        29.74R
FLORA*         CLOUDY   N/A N/A N/A S5        29.73R
FAIRFIELD*     RAIN      75  75  99 S3        29.72R
HARRISBURG*    RAIN      74  73  97 SW8       29.73R
ROBINSON*      CLOUDY    75  73  94 SW9       29.74R
CARMI*         HVY RAIN  74  74 100 SW13G21   29.74R
$$

ABBREVIATIONS USED IN REMARKS
   TC - TEMPERATURE IN CELSIUS
  WCI - WIND CHILL INDEX
   HX - HEAT INDEX
  VSB - VISIBILITY
$$




USA.gov is the U.S. government's official web portal to all federal, state and local government web resources and services.